Miscellaneous Local Product
Issued by NWS North Platte, NE

Home | Current Version | Previous Version | Graphics & Text | Print | Product List | Glossary On
Versions: 1 2 3 4 5 6 7 8 9 10 11 12 13 14 15 16 17 18 19 20 21 22 23 24 25 26 27 28 29 30 31 32 33 34 35 36 37 38 39 40 41 42 43 44 45 46 47 48 49 50
342
AXUS43 KLBF 231910
MISLBF


WESTERN AND NORTH CENTRAL NEBRASKA HOURLY WEATHER ROUNDUP
NATIONAL WEATHER SERVICE NORTH PLATTE NE
200 PM CDT MON MAY 23 2016

NOTE: "FAIR" INDICATES FEW OR NO CLOUDS BELOW 12,000 FEET WITH NO
SIGNIFICANT WEATHER AND/OR OBSTRUCTIONS TO VISIBILITY.

NOTE: STATIONS NOT REPORTING VARIABLES SUCH AS SKY/WEATHER OR
PRESSURE ARE PROVIDED BY RAWS AND APRS NETWORKS AND ARE NOT UNDER
NATIONAL WEATHER SERVICE QUALITY CONTROL.

...OBSERVATIONS IN AND NEAR THE EASTERN PANHANDLE OF NEBRASKA...

CITY           SKY/WX    TMP DP  RH WIND       PRES   REMARKS
PINE RIDGE     SUNNY     72  32  23 SW16G22   29.77F
CHADRON        SUNNY     71  33  24 W13       29.78F
ALLIANCE       SUNNY     69  30  23 W13G21    29.82F
SIDNEY         MOSUNNY   69  33  26 S6        29.88F
CRESCENT LAKE    N/A     70  26  19 W9G17       N/A
BIG SPRINGS      N/A     72  34  25 S3          N/A
$$

...OBSERVATIONS IN NORTHERN NEBRASKA AND FAR SOUTHERN SOUTH DAKOTA...

CITY           SKY/WX    TMP DP  RH WIND       PRES   REMARKS
WINNER         FAIR      74  50  42 SW12      29.74F
VALENTINE      SUNNY     74  40  29 SW12      29.76F
THEDFORD       SUNNY     76  40  28 SW12      29.81S
AINSWORTH      SUNNY     74  43  33 SW10G18   29.78S
O`NEILL        MOSUNNY   75  52  45 S8        29.78F
ORD            PTSUNNY   72  55  55 S6        29.78F
BROKEN BOW     SUNNY     73  50  44 S9        29.81S
BUTTE            N/A     73  51  45 SE9         N/A
CHAMBERS         N/A     76  52  43 S6          N/A
EWING            N/A     73  60  63 SW7         N/A
$$

...OBSERVATIONS IN SOUTHWEST NEBRASKA AND FAR NORTHEAST COLORADO...

CITY           SKY/WX    TMP DP  RH WIND       PRES   REMARKS
WRAY           FAIR      72  32  23 CALM      29.89S
HOLYOKE        FAIR      75  32  20 NE5       29.87F
IMPERIAL       SUNNY     71  33  24 W3        29.85F
OGALLALA       SUNNY     72  28  19 W3        29.85S
NORTH PLATTE   SUNNY     75  44  33 CALM      29.82F
MCCOOK         SUNNY     73  49  42 CALM      29.82F
LEXINGTON      SUNNY     72  55  53 CALM      29.82F
PAXTON           N/A     70  44  38 W3          N/A
STAPLETON        N/A     78  50  37 CALM        N/A
GOTHENBURG       N/A     75  41  30 W3          N/A
CALLAWAY         N/A     71  51  49 SW9         N/A
$$

...OBSERVATIONS IN CENTRAL LINCOLN COUNTY AREA...

CITY           SKY/WX    TMP DP  RH WIND       PRES   REMARKS
N.P. AIRPORT   SUNNY     75  44  33 CALM      29.82F
N.P. DOWNTOWN    N/A     76  40  27 CALM        N/A
N.P. HILLCREST   N/A     74  43  32 SW3G12      N/A
$$

...SOME OBSERVATIONS FROM AROUND THE REGION...

CITY           SKY/WX    TMP DP  RH WIND       PRES   REMARKS
DENVER         CLOUDY    67  36  31 SE24G30   29.89F
LARAMIE        CLOUDY    56  20  24 W12       29.93F
CHEYENNE       CLOUDY    63  36  36 SW21G29   29.90F
SCOTTSBLUFF    SUNNY     70  36  28 NW15G21   29.83F
RAPID CITY     MOSUNNY   74  33  22 SE17G26   29.72F
BISMARCK       SUNNY     78  37  22 W12G18    29.67F
PIERRE         SUNNY     75  50  41 VRB5      29.69F
SIOUX FALLS    CLOUDY    72  64  76 W8        29.76F
OMAHA          CLOUDY    71  64  78 SW6       29.79R
GRAND ISLAND   CLOUDY    77  63  61 SW8       29.79F
KANSAS CITY    TSTM      64  62  93 S13       29.94R FOG
WICHITA        CLOUDY    65  62  90 S17       29.85F
OKLAHOMA CITY  PTSUNNY   76  66  71 S20G30    29.84F
DALLAS         PTSUNNY   80  67  64 S15       29.88F
AMARILLO       SUNNY     86  37  17 SW16G23   29.84F
DODGE CITY     MOSUNNY   77  60  55 VRB6      29.79F
HAYS           PTSUNNY   75  59  57 SE17G25   29.78F
GOODLAND       SUNNY     73  43  33 E8        29.86F
$$




USA.gov is the U.S. government's official web portal to all federal, state and local government web resources and services.